Temperature
20 19 19 19 19 19 18 18 18 17 17 17 16 16 16 16 16 16 16 16 16 16 16 16 16 16 16 16 15 16 15 16 16 16 15 15 15 15 15 15 15 15 15
20 19 19 19 19 18 18 18 18 17 17 17 16 16 16 16 16 16 16 16 16 16 16 16 16 16 16 15 15 15 15 15 16 16 15 15 15 15 15 15 15 14 15
20 19 19 19 19 18 18 18 18 17 17 17 16 16 16 16 16 16 16 16 16 16 16 16 16 16 16 15 15 15 15 15 15 15 16 15 15 15 15 15 14 14 14
20 20 19 19 19 19 18 18 18 17 17 17 16 16 16 16 16 16 16 16 16 16 16 16 15 15 15 15 15 15 15 15 15 15 15 15 15 15 15 14 14 14 14
21 20 20 19 19 19 18 18 18 18 17 17 17 16 16 16 16 16 16 16 16 16 16 16 15 15 15 15 15 15 15 15 15 15 15 15 16 15 15 14 14 14 14
21 20 20 19 19 18 18 18 18 17 17 17 17 16 16 16 16 16 16 16 15 15 15 15 15 15 15 15 15 15 15 15 15 15 15 15 15 15 15 15 14 14 14
21 20 19 19 19 18 18 18 17 17 17 17 17 16 16 16 16 16 16 16 15 15 15 15 15 15 15 15 15 15 15 15 15 15 15 15 15 15 15 15 14 14 14
21 20 19 19 19 18 18 18 17 17 17 17 17 17 16 16 16 16 16 16 16 16 16 15 15 15 15 15 15 15 15 15 15 15 15 15 15 15 15 15 14 14 14
21 20 20 19 19 18 18 18 17 17 17 17 17 17 16 16 16 16 16 16 16 16 15 15 15 15 15 15 15 15 15 15 15 15 15 15 15 15 15 15 14 14 14
21 20 20 19 19 18 18 18 17 17 17 17 17 17 16 16 16 16 16 16 16 16 16 15 15 15 15 15 15 15 15 15 15 15 15 15 15 15 15 15 15 14 14
21 20 20 19 18 18 18 18 17 17 17 17 17 17 16 16 16 16 16 16 16 16 16 15 15 15 15 15 15 15 15 15 14 14 14 14 14 15 14 14 14 14 14
21 20 20 19 18 18 18 18 17 17 17 17 17 17 16 16 16 16 16 16 16 16 15 15 15 15 15 15 15 15 15 15 14 14 14 14 14 14 14 14 14 14 14
21 20 20 19 19 18 18 18 17 17 17 17 17 17 16 16 16 16 16 16 16 16 15 15 15 15 15 15 15 15 14 14 14 14 14 14 14 14 14 14 14 14 14
21 20 20 19 18 18 18 18 18 17 17 17 17 17 16 16 16 16 16 16 16 16 15 15 15 15 15 15 15 14 14 14 14 14 14 14 14 14 14 14 14 13 13
21 20 20 19 18 18 18 18 18 17 17 17 17 17 16 16 16 16 16 16 16 15 15 15 15 15 15 15 14 14 14 14 14 14 14 14 14 14 14 14 14 13 13
21 20 20 19 19 18 18 18 18 17 17 17 17 17 16 16 16 16 16 16 15 15 15 15 15 15 15 14 14 14 14 14 14 14 13 13 13 13 13 13 13 13 13
21 20 20 19 19 19 18 18 18 17 17 17 17 17 16 16 16 16 16 15 15 15 15 15 15 14 14 14 14 14 14 14 13 13 13 13 13 13 13 13 13 13 13
21 21 20 20 19 19 19 18 18 17 17 17 17 16 16 16 16 16 16 15 15 15 15 14 14 14 14 14 14 14 14 13 13 13 13 13 13 13 13 13 12 12 12
21 21 20 20 20 19 19 18 18 18 17 17 17 17 17 16 16 16 16 15 15 15 15 14 14 14 14 14 14 14 13 13 13 13 13 13 13 12 12 12 12 12 12
21 21 20 20 20 20 19 19 18 18 17 17 17 16 16 16 16 16 15 15 15 15 14 14 14 14 14 13 13 13 13 13 13 13 13 12 12 12 12 12 12 11 11
20 20 20 20 20 19 19 18 18 17 17 17 16 16 16 16 16 16 15 15 15 14 14 14 14 14 13 13 13 13 13 13 12 12 12 12 12 12 12 11 11 11 11
20 20 20 19 19 19 19 18 18 17 17 17 16 16 16 16 16 15 15 15 14 14 14 14 14 13 13 13 13 13 13 12 12 12 12 12 11 11 11 11 11 11 10
20 19 19 19 19 18 18 18 18 17 17 17 16 16 16 16 15 15 15 14 14 14 14 13 13 13 13 13 13 12 12 12 12 12 11 11 11 11 11 11 10 10 10
19 19 19 19 18 18 18 18 17 17 17 16 16 16 16 15 15 15 14 14 14 14 13 13 13 13 12 12 12 12 12 12 11 11 11 11 10 10 10 10 10 10 10
19 19 18 18 18 17 17 17 17 17 16 16 16 15 15 15 15 14 14 14 14 14 13 13 13 13 12 12 12 12 11 11 11 11 10 10 10 10 10 10 9 9 9
18 18 18 18 17 17 17 17 16 16 16 15 15 15 15 14 14 14 14 13 13 13 13 13 12 12 12 12 11 11 11 11 11 10 10 10 10 9 9 9 9 9 8
Wind_Speed
9 8 7 6 6 5 7 7 6 5 5 3 3 3 3 3 3 4 7 7 8 8 6 4 5 4 4 4 4 3 2 2 2 3 3 3 4 5 4 4 4 6 8
10 9 8 6 6 5 5 7 6 6 5 2 2 2 2 3 3 3 5 6 7 7 5 4 3 3 3 5 5 4 3 2 2 2 2 2 2 3 4 3 4 4 7
12 11 9 7 6 6 6 6 7 7 6 4 2 3 2 2 2 2 2 4 7 7 7 5 4 3 3 3 3 3 3 2 2 2 2 2 2 1 2 3 4 4 4
11 10 9 8 7 6 6 6 6 7 6 5 2 2 2 2 2 2 2 3 5 5 6 5 5 4 3 4 3 3 2 3 2 2 2 2 2 2 1 2 3 4 5
11 11 9 8 7 7 5 5 6 6 6 5 3 1 2 2 2 2 3 3 3 4 5 5 4 3 3 4 4 5 5 3 3 2 2 2 2 2 2 2 1 2 3
11 10 9 7 6 6 5 5 6 5 4 4 4 2 2 3 3 2 2 2 2 2 3 4 4 4 3 3 3 3 4 4 4 4 3 2 2 1 1 2 2 2 2
12 11 10 9 8 8 7 6 6 5 4 3 3 3 3 3 2 2 1 1 2 2 2 3 3 3 3 3 3 3 3 3 4 4 3 3 3 2 2 2 2 2 1
13 12 11 10 9 9 8 7 7 5 5 4 3 3 4 2 1 1 2 1 2 2 2 3 3 3 3 3 3 2 2 3 3 4 4 3 3 3 3 2 2 1 1
12 12 11 11 10 9 8 8 8 6 5 4 3 3 3 2 2 1 2 2 2 2 2 3 3 3 3 3 2 2 2 3 3 3 3 2 2 3 3 2 2 2 1
12 12 12 11 10 9 8 8 8 7 6 5 3 3 3 3 2 1 2 2 2 2 1 2 3 2 3 3 2 2 2 3 2 2 3 3 2 2 2 2 3 2 2
12 12 11 10 10 9 9 8 7 6 6 5 4 4 3 3 3 2 2 1 2 2 1 2 3 3 3 3 2 2 2 2 1 2 3 3 2 2 2 2 2 2 2
11 11 11 10 10 10 9 9 8 7 6 5 5 5 4 4 3 3 2 2 3 2 2 1 2 2 2 2 3 2 2 2 2 2 2 2 2 2 1 2 2 1 1
11 10 10 10 9 9 9 9 8 7 7 6 6 5 5 4 3 3 3 2 2 2 2 2 2 2 2 2 2 2 1 2 2 1 2 1 2 1 1 1 1 1 1
10 10 9 10 9 9 9 9 8 7 7 6 5 5 5 4 3 3 3 2 2 2 1 2 2 2 2 2 1 1 1 1 1 1 1 1 2 2 1 1 1 1 1
10 10 9 10 9 9 8 8 8 8 8 7 6 5 5 4 4 4 3 2 2 2 1 2 2 2 2 1 2 1 0 0 0 1 1 2 3 4 3 2 2 2 1
10 10 10 10 10 10 9 9 8 8 8 8 6 5 5 4 4 4 3 3 2 1 1 2 3 2 2 3 3 2 2 1 1 0 1 2 2 3 3 3 2 2 1
9 10 10 10 10 10 10 9 9 8 8 8 7 6 5 5 5 4 3 3 3 2 1 1 2 2 2 3 2 1 1 2 1 1 1 0 1 2 1 1 1 1 1
8 8 9 9 9 9 9 9 9 8 8 7 7 6 6 5 5 4 4 3 3 3 3 2 2 2 3 4 2 1 1 1 2 2 1 0 1 1 1 1 1 1 2
7 6 7 8 9 9 9 9 9 8 7 7 7 6 6 6 6 5 4 3 3 3 3 3 3 3 3 4 4 3 1 1 2 2 1 1 1 1 2 1 1 1 2
6 6 5 5 7 7 8 9 8 7 7 7 6 6 6 6 6 6 5 4 3 4 3 3 4 4 4 5 5 5 2 2 2 2 1 1 1 1 1 0 1 3 4
6 6 5 5 5 6 8 8 7 7 7 6 6 6 6 6 6 5 4 4 4 4 3 4 4 4 4 5 7 6 3 2 2 2 2 2 2 2 2 2 2 4 5
7 6 6 5 5 5 6 7 6 6 6 6 6 6 6 6 6 5 4 4 4 4 4 3 3 3 3 5 6 7 6 3 2 2 1 1 2 3 4 4 5 7 6
6 6 6 6 5 5 5 5 5 5 7 7 6 6 6 5 5 5 5 4 4 3 3 3 3 3 2 3 6 7 7 5 3 2 1 1 2 3 4 6 7 5 3
6 6 6 6 5 5 5 5 5 5 6 7 6 5 5 5 4 3 3 3 3 3 3 3 2 2 1 1 1 2 3 4 3 3 3 4 4 4 4 5 5 4 3
6 6 6 5 5 5 5 5 5 5 5 6 5 5 4 5 4 3 2 3 2 4 4 3 3 2 2 2 3 3 2 2 3 2 2 2 2 3 3 3 3 3 3
6 6 6 5 5 5 5 4 4 4 5 5 5 4 4 4 4 4 2 2 2 3 4 3 3 2 3 3 3 4 3 2 2 1 2 3 3 3 3 3 3 3 3
Wind_Direction
160 154 151 152 144 134 124 122 127 111 97 74 76 78 65 58 52 52 41 38 38 36 39 45 45 41 38 30 43 52 67 71 90 88 74 54 65 83 66 53 54 57 61
159 151 153 159 153 145 133 136 130 122 115 106 113 110 97 85 78 54 40 38 40 32 37 54 64 60 49 35 39 42 38 23 49 83 114 100 40 40 72 68 58 56 56
166 163 166 162 163 157 150 142 136 131 128 121 88 88 75 81 95 85 51 44 49 32 24 42 61 55 63 60 47 43 55 24 3 48 76 105 121 100 37 75 70 65 58
165 162 167 165 168 156 152 148 144 137 130 124 112 123 124 107 101 114 113 83 64 52 26 36 49 55 55 56 36 46 46 41 10 3 28 69 106 121 112 40 59 68 65
167 167 168 165 166 151 152 143 128 118 119 126 125 106 90 96 93 94 95 88 60 59 44 41 46 54 59 58 52 47 36 38 29 21 22 24 32 49 117 123 105 68 68
170 168 163 158 156 143 137 120 115 107 109 124 136 141 104 96 96 90 98 108 93 63 57 54 54 58 57 55 54 59 53 39 25 27 39 44 48 36 78 114 125 119 104
174 171 168 166 158 150 147 142 136 138 142 160 167 157 139 137 141 139 119 102 106 88 74 64 62 65 72 66 59 63 65 63 50 42 28 31 34 37 57 95 112 111 130
176 174 168 164 160 158 158 159 154 153 159 178 180 155 142 141 124 102 116 100 96 95 92 85 83 67 70 77 58 61 53 68 67 61 50 40 23 28 40 68 95 87 72
171 166 163 162 161 163 163 162 158 162 171 185 172 144 131 122 120 134 108 100 104 110 107 116 114 100 82 80 78 79 68 65 60 68 72 64 34 29 25 37 70 112 103
170 166 164 164 165 166 165 164 164 168 171 177 165 140 132 131 135 148 110 117 112 103 155 148 134 129 112 89 69 71 76 91 81 82 74 63 52 31 38 37 32 58 109
168 164 162 163 163 164 163 162 166 169 165 171 158 145 152 147 151 152 133 132 125 160 166 141 133 127 126 127 115 110 91 105 109 104 100 90 71 47 35 37 45 44 79
162 161 161 161 161 167 168 168 172 170 166 170 158 159 162 161 168 166 165 177 162 171 175 155 122 117 114 122 132 137 118 98 79 70 88 95 94 81 47 40 53 58 82
157 159 160 162 165 169 171 172 171 169 167 167 166 163 158 168 180 170 172 187 168 177 173 136 121 121 112 109 115 125 130 117 104 87 76 72 86 90 82 74 45 32 42
156 159 161 163 165 170 171 171 168 165 161 163 163 163 166 170 173 163 167 182 179 165 152 133 126 121 113 101 96 93 88 96 108 107 95 71 74 65 51 57 19 28 21
160 162 163 165 166 171 172 169 165 164 162 162 168 173 170 163 163 157 164 175 171 156 154 129 119 113 109 72 48 28 73 92 156 153 132 112 103 86 75 63 28 28 23
167 166 168 168 172 175 175 169 165 167 163 165 172 172 166 160 164 159 156 160 150 151 145 138 133 131 114 91 73 40 345 321 282 205 156 147 126 127 116 101 81 68 73
168 169 172 173 174 177 175 169 169 169 167 167 168 167 166 164 159 157 160 164 158 149 143 139 137 141 134 128 121 85 325 318 314 313 289 215 148 129 149 186 207 276 304
164 168 173 172 173 176 171 168 166 167 167 166 166 165 164 163 159 163 170 171 167 172 176 177 174 160 154 154 151 172 257 301 320 308 281 178 104 89 109 146 212 226 255
152 161 171 169 169 170 167 165 167 167 166 166 169 170 167 165 165 170 174 172 178 185 182 188 189 180 180 177 173 164 221 258 277 303 353 56 101 43 61 41 307 293 278
138 146 152 154 159 160 155 159 163 164 166 164 168 166 163 164 169 173 175 172 183 192 184 194 196 192 188 180 176 175 197 237 245 245 229 104 113 105 73 334 299 289 285
130 135 137 133 139 144 149 155 160 167 165 159 158 156 157 163 165 169 174 172 179 185 192 202 201 199 190 182 179 178 198 231 245 242 225 214 190 194 233 258 255 272 291
132 132 129 123 124 130 143 151 158 160 153 150 151 156 159 164 168 166 172 172 175 185 198 206 205 202 192 185 189 192 207 230 241 254 234 223 208 235 251 257 272 287 297
134 134 133 133 133 135 140 146 145 143 147 148 153 158 156 154 153 158 167 172 176 181 196 203 210 207 194 185 189 198 215 234 242 246 223 267 269 263 258 260 271 279 272
136 137 138 141 139 135 135 139 138 139 143 150 154 154 154 153 154 152 160 163 173 183 193 199 204 203 164 147 168 195 211 223 240 247 252 264 263 261 261 266 266 253 248
133 139 142 139 142 137 131 131 138 147 154 154 153 155 154 153 149 136 138 163 174 181 186 199 196 188 191 207 174 169 190 203 220 230 228 235 246 250 256 254 252 249 258
135 133 128 131 137 132 128 127 137 153 159 159 159 158 154 151 147 143 125 83 128 142 162 169 170 176 186 181 172 184 197 209 214 195 230 243 247 250 254 260 267 261 256
Height
1542 1545 1547 1549 1550 1552 1553 1554 1556 1557 1557 1558 1558 1558 1558 1558 1558 1557 1557 1556 1556 1556 1556 1556 1555 1555 1555 1556 1556 1557 1558 1559 1559 1560 1560 1561 1561 1561 1561 1561 1561 1561 1560
1541 1544 1546 1548 1550 1552 1554 1555 1556 1557 1557 1558 1559 1559 1559 1559 1558 1558 1558 1557 1557 1557 1557 1557 1556 1556 1556 1556 1557 1557 1558 1559 1560 1560 1561 1562 1564 1563 1563 1563 1562 1562 1562
1539 1543 1546 1548 1550 1552 1554 1555 1556 1557 1558 1558 1559 1559 1559 1559 1560 1559 1559 1559 1558 1558 1558 1557 1557 1557 1557 1557 1557 1558 1558 1559 1560 1561 1561 1562 1563 1563 1565 1564 1563 1563 1562
1537 1541 1544 1547 1549 1551 1553 1555 1556 1557 1558 1558 1559 1560 1560 1560 1561 1560 1560 1560 1559 1559 1559 1558 1558 1558 1558 1558 1558 1558 1559 1559 1560 1561 1561 1562 1563 1563 1564 1565 1564 1564 1564
1535 1539 1542 1545 1548 1550 1552 1554 1556 1557 1558 1558 1559 1560 1560 1561 1561 1561 1561 1561 1560 1560 1560 1559 1559 1559 1558 1558 1559 1559 1559 1559 1560 1561 1561 1562 1563 1563 1564 1565 1565 1565 1565
1533 1537 1540 1544 1546 1549 1551 1553 1555 1556 1557 1558 1559 1560 1561 1561 1562 1562 1562 1562 1561 1561 1560 1560 1560 1559 1559 1559 1559 1559 1560 1560 1560 1561 1561 1562 1563 1563 1564 1564 1565 1565 1565
1531 1535 1538 1541 1544 1547 1550 1552 1554 1555 1557 1558 1559 1560 1560 1561 1562 1562 1562 1562 1562 1561 1561 1561 1560 1560 1560 1560 1560 1560 1561 1561 1561 1561 1562 1562 1563 1563 1564 1565 1565 1565 1566
1527 1531 1535 1539 1542 1545 1548 1550 1553 1554 1556 1557 1559 1560 1560 1561 1562 1562 1562 1562 1562 1562 1561 1561 1561 1560 1560 1561 1561 1561 1561 1561 1561 1561 1562 1562 1563 1563 1564 1565 1565 1565 1566
1524 1528 1533 1537 1540 1543 1546 1548 1551 1553 1555 1556 1558 1559 1560 1560 1561 1562 1562 1562 1562 1562 1561 1561 1561 1561 1561 1561 1562 1562 1562 1562 1562 1562 1563 1563 1563 1564 1564 1565 1565 1566 1565
1522 1526 1530 1534 1538 1541 1544 1547 1549 1551 1553 1555 1557 1558 1559 1560 1560 1561 1562 1562 1562 1562 1562 1562 1562 1562 1562 1562 1562 1562 1563 1563 1563 1563 1563 1564 1564 1564 1564 1565 1565 1565 1566
1519 1524 1528 1532 1536 1539 1542 1545 1548 1550 1552 1554 1555 1556 1558 1559 1559 1560 1561 1561 1561 1561 1561 1562 1562 1562 1562 1562 1562 1563 1563 1563 1564 1564 1564 1564 1564 1564 1564 1565 1565 1565 1566
1517 1522 1526 1530 1534 1537 1540 1543 1546 1549 1550 1552 1554 1555 1556 1558 1558 1559 1560 1560 1561 1561 1561 1562 1562 1562 1562 1562 1563 1563 1563 1564 1564 1564 1564 1564 1565 1565 1565 1565 1565 1565 1565
1516 1520 1524 1528 1531 1535 1538 1541 1544 1546 1549 1551 1552 1554 1555 1556 1557 1558 1559 1559 1560 1560 1561 1561 1561 1561 1562 1562 1562 1563 1563 1563 1564 1564 1564 1564 1565 1564 1564 1564 1564 1565 1565
1515 1519 1523 1526 1529 1533 1536 1539 1542 1544 1546 1549 1550 1552 1553 1555 1556 1557 1557 1558 1559 1559 1560 1560 1560 1560 1561 1561 1562 1562 1563 1563 1563 1563 1564 1564 1564 1564 1564 1564 1564 1564 1564
1514 1517 1521 1524 1527 1530 1534 1537 1539 1542 1544 1546 1548 1550 1552 1553 1554 1555 1556 1556 1557 1558 1558 1559 1559 1559 1560 1560 1561 1561 1562 1562 1562 1563 1563 1563 1563 1563 1563 1563 1563 1563 1562
1512 1516 1519 1522 1525 1528 1531 1534 1537 1540 1542 1544 1546 1548 1550 1551 1552 1553 1554 1555 1555 1556 1557 1557 1557 1558 1558 1559 1559 1560 1560 1561 1561 1561 1562 1562 1562 1562 1561 1561 1561 1561 1561
1510 1513 1516 1520 1523 1526 1529 1532 1535 1538 1540 1542 1544 1546 1547 1549 1550 1551 1552 1553 1553 1554 1555 1555 1556 1556 1556 1557 1558 1558 1558 1559 1559 1560 1560 1560 1560 1560 1560 1559 1559 1559 1559
1508 1511 1515 1518 1521 1524 1527 1530 1533 1535 1537 1539 1541 1543 1545 1546 1547 1549 1549 1550 1551 1552 1552 1553 1554 1554 1555 1555 1556 1556 1557 1557 1557 1558 1558 1558 1558 1558 1557 1557 1557 1556 1556
1506 1509 1513 1516 1519 1521 1524 1527 1530 1532 1535 1537 1539 1541 1542 1544 1545 1546 1547 1548 1549 1550 1550 1551 1552 1552 1553 1553 1554 1554 1555 1555 1555 1556 1556 1556 1555 1555 1555 1555 1554 1554 1553
1505 1508 1511 1514 1516 1519 1522 1525 1527 1530 1532 1534 1536 1538 1540 1541 1542 1543 1545 1546 1546 1547 1548 1549 1549 1550 1551 1551 1552 1552 1552 1552 1552 1553 1553 1553 1553 1553 1552 1552 1551 1550 1550
1504 1506 1509 1512 1514 1517 1520 1522 1525 1527 1530 1532 1534 1536 1537 1539 1540 1541 1542 1543 1544 1545 1546 1546 1547 1548 1548 1549 1549 1549 1549 1549 1549 1549 1549 1549 1549 1549 1549 1548 1548 1547 1546
1503 1505 1508 1510 1513 1515 1518 1520 1522 1525 1527 1529 1531 1533 1535 1536 1538 1539 1540 1541 1542 1542 1543 1544 1544 1545 1545 1546 1546 1547 1547 1547 1546 1546 1546 1546 1546 1545 1545 1545 1544 1543 1543
1502 1504 1507 1509 1512 1514 1516 1518 1521 1523 1525 1527 1529 1531 1532 1534 1535 1536 1537 1538 1539 1540 1540 1541 1541 1541 1542 1542 1543 1543 1543 1543 1543 1543 1543 1543 1542 1542 1541 1541 1540 1540 1539
1501 1503 1506 1508 1510 1512 1515 1517 1519 1521 1523 1525 1527 1528 1530 1531 1533 1534 1535 1535 1536 1537 1537 1538 1538 1538 1539 1538 1539 1539 1539 1539 1539 1539 1539 1539 1538 1538 1537 1537 1536 1535 1535
1500 1502 1504 1506 1509 1511 1513 1515 1517 1519 1521 1523 1524 1526 1527 1528 1530 1531 1532 1533 1534 1534 1535 1535 1535 1536 1535 1536 1536 1536 1536 1536 1536 1535 1535 1534 1534 1533 1533 1532 1532 1531 1530
1499 1501 1503 1505 1507 1509 1511 1513 1515 1517 1519 1520 1522 1523 1524 1526 1527 1528 1529 1530 1531 1532 1532 1532 1533 1532 1533 1533 1533 1533 1533 1532 1532 1532 1531 1530 1530 1529 1529 1528 1527 1527 1526